User: anonymous   Login
Location: Waldport
(44.4270°N, 124.0680°W)
Time: 07:54:55
(UTC-08:00)
Language:

Cosmos 1023 Rocket - Orbit

View from above orbital plane
View from above orbital plane
View from above satellite
View from above satellite

Ground track
Ground track

The orbit data is extracted from the following two-line orbital elements,

1 10962U 78063B   17051.17148985  .00000103  00000-0  40075-4 0  9993
2 10962  74.0783  74.9351 0025079   4.6857 355.4528 14.41070151 29019
Epoch (UTC): 20 February 2017 04:06:56
Eccentricity: 0.0025079
inclination: 74.0783°
perigee height: 737 km
apogee height: 773 km
right ascension of ascending node: 74.9351°
argument of perigee: 4.6857°
revolutions per day: 14.41070151
mean anomaly at epoch: 355.4528°
orbit number at epoch: 2901

The dashed part of the orbit path shows where the satellite is in the earth's shadow,  

DLR